Total_Precipitation_Accumulation
0.10 0.33 0.76 1.20 2.02 2.31 1.71 0.94 0.57 0.37 0.41 0.50 0.61 0.75 0.81 1.00 1.42 2.28 2.16 1.76 1.59 1.79 1.88 1.95 2.04 1.90 2.03 2.18 2.22 2.34 2.63 2.79 2.77 2.54 2.52 2.77 3.06 3.27 3.39 3.28 3.27 3.50 3.92 4.11 3.94 3.69 3.50 3.34 3.21
0.24 0.63 1.11 1.65 2.23 1.87 1.35 0.76 0.43 0.31 0.33 0.44 0.50 0.49 0.51 0.57 0.65 1.08 1.61 1.53 1.33 1.40 1.47 1.55 1.80 1.80 1.79 1.95 2.05 2.16 2.36 2.57 2.61 2.48 2.40 2.67 3.00 3.29 3.51 3.49 3.35 3.54 3.90 4.21 4.09 3.84 3.60 3.33 3.08
0.45 0.76 1.26 1.91 1.70 1.23 0.94 0.52 0.37 0.34 0.40 0.49 0.48 0.44 0.54 0.79 0.73 1.00 1.35 1.29 1.22 1.28 1.36 1.65 1.74 1.69 1.69 1.76 1.85 2.01 2.11 2.23 2.35 2.40 2.51 2.78 3.14 3.46 3.55 3.44 3.36 3.43 3.65 4.01 4.15 3.75 3.26 2.99 2.88
0.63 0.99 1.33 1.60 1.09 0.72 0.58 0.43 0.34 0.32 0.48 0.61 0.64 0.55 0.58 0.76 0.84 1.02 1.16 1.15 1.24 1.40 1.44 1.59 1.72 1.58 1.61 1.67 1.72 1.89 1.99 2.10 2.29 2.42 2.53 2.88 3.18 3.39 3.42 3.27 3.21 3.31 3.43 3.67 3.76 3.41 2.94 2.81 2.91
0.83 1.22 1.56 1.19 0.69 0.54 0.48 0.37 0.32 0.32 0.41 0.62 0.72 0.80 0.94 1.05 0.94 0.94 1.02 1.07 1.14 1.31 1.47 1.58 1.64 1.48 1.47 1.48 1.58 1.80 1.92 2.06 2.28 2.37 2.54 2.84 3.13 3.29 3.37 3.29 3.35 3.30 3.40 3.58 3.39 3.09 2.88 2.97 2.96
0.97 1.22 1.24 0.87 0.52 0.41 0.36 0.33 0.35 0.37 0.51 0.61 0.66 0.84 1.23 1.34 1.10 0.98 1.06 1.16 1.15 1.13 1.32 1.53 1.56 1.40 1.35 1.40 1.54 1.70 1.87 2.03 2.21 2.29 2.48 2.80 3.12 3.15 2.97 3.04 3.19 3.03 3.13 3.23 3.05 2.81 2.66 2.80 2.88
0.86 0.89 0.77 0.65 0.55 0.45 0.33 0.30 0.39 0.41 0.69 0.84 0.88 0.92 1.34 1.48 1.15 1.04 1.19 1.32 1.30 1.14 1.25 1.39 1.46 1.38 1.35 1.44 1.64 1.79 1.88 2.07 2.25 2.29 2.49 2.90 3.13 3.09 2.90 2.87 2.94 2.95 3.06 2.90 2.77 2.77 2.61 2.60 2.79
0.51 0.54 0.45 0.42 0.45 0.41 0.31 0.28 0.37 0.44 0.61 0.67 0.83 1.04 1.40 1.34 1.06 1.09 1.26 1.41 1.34 1.27 1.34 1.34 1.42 1.32 1.27 1.41 1.78 2.03 2.13 2.31 2.50 2.60 2.79 3.24 3.31 3.20 3.02 2.78 2.83 2.88 2.87 2.81 2.80 2.82 2.73 2.70 2.88
0.44 0.45 0.41 0.32 0.28 0.29 0.23 0.26 0.29 0.45 0.52 0.56 0.71 0.91 1.18 1.04 1.01 1.21 1.47 1.57 1.48 1.47 1.59 1.51 1.55 1.36 1.39 1.45 1.75 2.16 2.30 2.52 2.84 3.16 3.43 3.75 3.85 3.51 3.41 3.00 3.23 3.27 3.15 3.19 3.21 3.20 3.13 3.03 3.11
0.32 0.34 0.24 0.16 0.15 0.19 0.19 0.24 0.30 0.45 0.82 1.01 1.15 1.12 1.03 1.08 1.16 1.28 1.48 1.64 1.67 1.73 1.56 1.57 1.64 1.52 1.63 1.62 1.96 2.59 2.65 2.89 3.22 3.51 3.62 3.86 4.01 3.96 3.45 3.69 4.12 4.20 4.16 4.16 4.16 4.15 3.86 3.33 3.06
0.21 0.19 0.12 0.11 0.11 0.13 0.16 0.22 0.22 0.39 0.96 1.48 1.60 1.29 1.02 1.19 1.38 1.56 1.65 1.74 1.68 1.78 1.58 1.68 1.79 1.91 1.99 2.31 2.15 2.36 2.80 3.19 3.37 3.62 3.90 4.00 3.80 3.70 3.63 4.04 4.61 4.78 4.72 4.61 4.60 4.56 3.98 3.65 3.65
0.13 0.09 0.09 0.08 0.10 0.12 0.15 0.20 0.24 0.39 0.88 1.28 1.30 1.10 1.01 1.28 1.48 1.74 1.91 2.14 2.25 2.25 2.19 2.13 2.31 2.55 2.58 2.39 2.37 2.24 2.36 2.70 3.21 3.64 3.55 3.71 4.14 4.13 3.90 4.02 4.26 4.48 4.61 4.83 4.48 4.37 4.25 4.06 3.73
0.11 0.09 0.09 0.10 0.13 0.15 0.18 0.20 0.29 0.51 0.62 0.69 0.81 0.89 1.05 1.36 1.70 2.08 2.35 2.61 2.68 2.98 3.16 3.09 3.06 3.00 3.07 3.08 2.95 2.49 2.64 2.65 2.80 3.34 3.45 3.49 3.96 4.27 4.26 4.23 4.40 4.01 4.05 4.43 4.49 4.12 4.19 4.23 3.93
0.11 0.10 0.09 0.12 0.14 0.19 0.22 0.26 0.35 0.60 0.65 0.69 0.77 0.83 1.00 1.47 2.01 2.45 2.62 2.81 3.03 3.71 4.23 4.02 3.84 3.59 3.50 3.56 3.55 3.48 3.13 3.04 2.88 3.19 3.39 3.55 3.91 4.22 4.37 4.36 4.40 3.95 3.77 3.95 4.08 3.97 4.16 4.10 3.95
0.14 0.14 0.18 0.16 0.15 0.23 0.31 0.48 0.57 0.72 0.72 0.74 0.87 0.93 1.07 1.49 1.91 2.60 3.03 3.37 3.60 4.37 4.97 4.74 4.60 4.59 4.40 4.32 4.01 3.62 3.35 3.17 3.39 3.57 3.74 3.85 3.94 4.27 4.48 4.46 4.30 4.13 4.05 4.05 3.98 3.99 4.29 3.99 3.80
0.20 0.23 0.37 0.28 0.21 0.24 0.39 0.87 0.86 0.83 0.75 0.84 1.06 1.00 1.03 1.36 1.87 2.57 3.25 3.83 4.17 4.55 5.01 5.37 4.98 5.40 5.39 5.17 4.79 4.30 4.00 3.99 3.94 3.87 4.05 3.87 3.81 3.95 4.39 4.23 3.96 4.15 4.24 4.32 4.25 4.14 4.26 4.28 4.30
0.28 0.33 0.47 0.42 0.28 0.26 0.37 0.94 0.97 0.72 0.73 0.90 1.08 1.10 1.13 1.40 1.79 2.28 2.94 3.58 4.19 4.79 5.36 5.87 6.06 6.15 5.76 5.48 5.22 5.02 4.68 4.38 3.95 3.56 3.51 3.40 3.20 3.18 3.42 3.44 3.49 3.52 3.72 3.65 3.40 3.76 3.96 4.18 4.34
0.28 0.28 0.34 0.51 0.40 0.30 0.40 0.73 0.86 0.76 0.73 0.93 1.15 1.14 1.20 1.42 1.82 2.23 2.77 3.27 3.97 4.88 5.80 6.25 6.42 6.03 5.62 5.32 5.01 4.92 4.53 4.12 3.76 3.38 3.12 2.96 2.94 2.80 3.01 2.86 2.95 3.13 3.40 3.44 3.49 3.73 3.66 3.58 3.75
0.20 0.25 0.30 0.40 0.33 0.32 0.48 0.76 0.87 0.87 0.89 1.03 1.22 1.23 1.25 1.38 1.77 2.25 2.76 3.25 3.95 4.92 5.94 6.39 6.26 5.68 5.16 4.75 4.42 4.21 3.87 3.57 3.45 3.14 2.80 2.78 2.76 2.80 3.11 2.83 3.17 3.18 3.26 3.23 3.15 3.30 3.28 3.03 3.15
0.19 0.27 0.30 0.37 0.30 0.35 0.52 0.84 1.02 1.12 1.16 1.08 1.15 1.27 1.21 1.37 1.83 2.35 2.94 3.32 3.67 4.25 5.08 5.48 5.20 4.62 3.97 3.71 3.67 3.67 3.60 3.20 2.97 2.91 2.91 2.60 2.60 2.68 2.76 2.94 2.79 2.85 3.06 2.96 2.90 3.23 3.23 2.89 2.97
0.19 0.24 0.29 0.35 0.32 0.42 0.58 1.09 1.39 1.36 1.10 0.90 0.82 0.97 1.02 1.13 1.63 2.36 2.92 3.19 3.46 3.74 3.82 3.96 3.90 3.49 3.18 3.11 3.12 3.15 3.33 3.09 2.80 2.71 2.67 2.45 2.35 2.34 2.50 2.58 2.71 2.83 2.73 2.86 2.93 3.01 3.16 3.09 2.93
0.19 0.16 0.17 0.24 0.37 0.60 0.70 1.51 1.80 1.49 1.23 1.00 0.84 0.84 0.92 1.08 1.48 2.23 2.54 2.67 2.73 2.83 2.71 2.81 2.92 2.85 2.82 2.73 2.73 2.61 2.48 2.49 2.39 2.40 2.36 2.36 2.24 2.18 2.12 2.26 2.52 2.66 2.61 2.87 2.60 2.76 3.04 3.16 2.92
0.17 0.14 0.15 0.24 0.40 0.62 0.87 1.42 1.90 1.64 1.43 1.09 0.82 0.79 0.95 0.99 1.20 1.52 1.64 1.79 1.87 1.93 1.98 2.23 2.60 2.76 2.67 2.57 2.67 2.67 2.35 2.22 2.17 2.22 2.36 2.34 2.23 2.13 2.03 2.12 2.34 2.49 2.55 2.66 2.68 2.99 2.93 2.85 2.83
0.14 0.18 0.24 0.40 0.63 1.12 1.14 1.31 1.79 1.62 1.30 0.94 0.76 0.73 0.69 0.73 0.89 1.08 1.17 1.27 1.34 1.39 1.51 1.76 2.21 2.46 2.44 2.42 2.43 2.36 2.29 2.26 2.20 2.15 2.20 2.17 2.14 2.22 2.29 2.27 2.35 2.32 2.35 2.44 2.56 2.81 2.81 2.76 2.82
0.13 0.20 0.50 0.97 1.46 1.62 1.06 1.21 1.61 1.26 0.93 0.68 0.55 0.57 0.61 0.74 0.80 0.93 1.13 1.19 1.14 1.11 1.23 1.41 1.72 1.87 1.87 1.97 2.15 2.22 2.26 2.23 2.09 2.03 2.01 1.97 1.81 1.92 2.19 2.36 2.45 2.45 2.43 2.36 2.47 2.56 2.57 2.63 2.78
0.16 0.19 0.40 0.73 0.90 1.06 0.99 1.48 1.64 0.97 0.72 0.60 0.54 0.55 0.65 0.71 0.69 0.76 0.90 0.92 0.92 0.99 1.07 1.21 1.37 1.45 1.54 1.65 1.86 2.04 2.07 2.04 2.00 2.14 2.03 1.87 1.66 1.61 1.83 2.10 2.22 2.23 2.18 2.19 2.63 2.42 2.38 2.55 2.63
0.15 0.16 0.19 0.28 0.39 0.76 1.18 1.45 1.33 0.90 0.66 0.57 0.53 0.49 0.60 0.61 0.55 0.59 0.70 0.75 0.79 0.96 1.06 1.10 1.20 1.30 1.41 1.50 1.77 1.94 1.95 1.90 1.93 2.02 1.93 1.75 1.76 1.65 1.72 1.77 2.06 2.18 2.14 2.20 2.44 2.38 2.34 2.49 2.48
0.13 0.14 0.15 0.23 0.42 0.77 1.21 1.63 1.55 1.17 0.83 0.70 0.55 0.47 0.54 0.54 0.51 0.58 0.62 0.71 0.71 0.73 0.89 1.00 1.07 1.25 1.42 1.50 1.56 1.60 1.76 1.73 1.71 1.66 1.63 1.71 1.75 1.71 1.76 1.84 1.85 1.95 2.10 2.23 2.39 2.26 2.20 2.35 2.42
0.14 0.12 0.13 0.17 0.25 0.55 1.07 1.36 1.02 0.86 0.68 0.66 0.63 0.57 0.55 0.59 0.60 0.60 0.67 0.69 0.65 0.64 0.79 0.92 1.01 1.14 1.26 1.29 1.34 1.45 1.55 1.54 1.50 1.50 1.47 1.57 1.61 1.65 1.66 1.71 1.78 1.79 1.92 2.19 2.50 2.40 2.39 2.44 2.44
0.11 0.10 0.12 0.17 0.22 0.30 0.65 0.87 0.57 0.58 0.57 0.63 0.66 0.67 0.71 0.79 0.78 0.76 0.79 0.76 0.74 0.75 0.79 0.88 0.88 0.94 1.02 1.11 1.19 1.27 1.39 1.42 1.42 1.45 1.58 1.66 1.65 1.59 1.50 1.56 1.64 1.58 1.71 1.98 2.29 2.45 2.58 2.71 2.65